This demonstration page uses our WeatherBlox Daily Observations layout. Learn more.

40.92945, -100.16068

Hourly Observations for April 19, 2017

Temp ( °F °C ) Dew Point ( °F °C ) Humidity (%) Winds ( mph kmh ) Pressure ( in mb ) Visibility ( mi km ) Precip ( " mm )
12:15 am 00:15 Mostly Cloudy 61 16.1 40 4.3 46 46 E 14 22 29.88 1012 10 16.0934 0 0
12:35 am 00:35 Cloudy 62 16.5 40 4.6 45 45 E 15 24 29.88 1012 10 16.0934 0 0
12:55 am 00:55 Cloudy 62 16.5 41 4.9 46 46 E 16 26 29.88 1012 10 16.0934 0 0
1:15 am 01:15 Cloudy 62 16.7 41 4.8 46 46 E 17 28 29.88 1012 10 16.0934 0 0
1:35 am 01:35 Cloudy 62 16.7 41 4.8 46 46 E 15 24 29.85 1011 10 16.0934 0 0
1:55 am 01:55 Cloudy 62 16.6 41 5 46 46 E 16 26 29.85 1011 10 16.0934 0 0
2:15 am 02:15 Cloudy 62 16.4 42 5.4 48 48 E 16 26 29.85 1011 10 16.0934 0 0
2:35 am 02:35 Cloudy 61 16 42 5.6 50 50 E 14 22 29.85 1011 10 16.0934 0 0
2:55 am 02:55 Cloudy 61 16.2 42 5.8 50 50 E 18 30 29.83 1010 10 16.0934 0 0
3:15 am 03:15 Cloudy 61 16.2 43 6 51 51 E 17 28 29.83 1010 10 16.0934 0 0
3:35 am 03:35 Cloudy 61 16.1 43 6 51 51 E 21 33 29.8 1009 10 16.0934 0 0
3:55 am 03:55 Cloudy 61 16 43 6 52 52 E 18 30 29.8 1009 10 16.0934 0 0
4:15 am 04:15 Cloudy 61 16 43 6.1 52 52 E 18 30 29.8 1009 10 16.0934 0 0
4:35 am 04:35 Cloudy 60 15.8 44 6.4 54 54 E 26 43 29.77 1008 10 16.0934 0 0
4:55 am 04:55 Cloudy 60 15.6 44 6.7 56 56 E 31 50 29.77 1008 10 16.0934 0 0
5:15 am 05:15 Cloudy 60 15.5 44 6.6 56 56 E 21 33 29.77 1008 10 16.0934 0 0
5:35 am 05:35 Cloudy 59 15.1 45 7.2 59 59 E 22 35 29.74 1007 10 16.0934 0 0
5:55 am 05:55 Cloudy 59 15 46 7.8 62 62 E 17 28 29.74 1007 10 16.0934 0 0
6:15 am 06:15 Cloudy 59 14.8 47 8.1 64 64 ESE 23 37 29.74 1007 10 16.0934 0 0
6:35 am 06:35 Cloudy 58 14.5 47 8.3 67 67 E 23 37 29.74 1007 10 16.0934 0 0
6:55 am 06:55 Cloudy 58 14.5 47 8.6 68 68 E 17 28 29.71 1006 10 16.0934 0 0
7:15 am 07:15 Cloudy 58 14.3 48 9 71 71 E 15 24 29.71 1006 10 16.0934 0 0
7:35 am 07:35 Cloudy 58 14.3 49 9.5 73 73 E 20 31 29.71 1006 10 16.0934 0 0
7:55 am 07:55 Cloudy 58 14.5 50 10 75 75 E 9 15 29.71 1006 10 16.0934 0 0
8:15 am 08:15 Cloudy 58 14.3 50 10 76 76 E 12 19 29.71 1006 10 16.0934 0 0
8:35 am 08:35 Cloudy 60 15.3 54 12.2 82 82 ESE 12 19 29.71 1006 10 16.0934 0 0
8:55 am 08:55 Cloudy 59 14.9 52 11 78 78 E 13 20 29.71 1006 10 16.0934 0 0
9:15 am 09:15 Cloudy 58 14.7 51 10.8 78 78 ENE 14 22 29.71 1006 10 16.0934 0 0
9:35 am 09:35 Cloudy 59 15 53 11.4 79 79 NNE 13 20 29.71 1006 10 16.0934 0 0
9:55 am 09:55 Cloudy 57 13.9 50 10.1 78 78 N 16 26 29.77 1008 10 16.0934 0 0
10:15 am 10:15 Cloudy 55 13 49 9.4 79 79 NNE 24 39 29.77 1008 10 16.0934 0 0
10:35 am 10:35 Cloudy 55 12.9 49 9.5 80 80 NE 21 33 29.74 1007 10 16.0934 0 0
10:55 am 10:55 Sunny 56 13.6 51 10.3 81 81 ENE 15 24 29.74 1007 10 16.0934 0 0
11:15 am 11:15 Sunny 54 12.3 49 9.5 83 83 NNE 20 31 29.77 1008 10 16.0934 0 0
11:35 am 11:35 Cloudy 54 12 49 9.5 85 85 NNE 21 33 29.77 1008 10 16.0934 0 0
11:55 am 11:55 Cloudy 53 11.5 49 9.2 86 86 NNE 22 35 29.77 1008 10 16.0934 0 0
12:15 pm 12:15 Cloudy 52 11.2 48 9.1 87 87 NNE 17 28 29.83 1010 10 16.0934 0 0
12:35 pm 12:35 Cloudy 52 11.3 48 8.8 85 85 NNE 15 24 29.83 1010 10 16.0934 0 0
12:55 pm 12:55 Cloudy 52 11.3 48 8.8 85 85 NNE 17 28 29.83 1010 10 16.0934 0 0
1:15 pm 13:15 Cloudy 53 11.4 48 8.7 84 84 N 18 30 29.85 1011 10 16.0934 0 0
1:35 pm 13:35 Cloudy 51 10.5 46 7.8 84 84 N 18 30 29.88 1012 10 16.0934 0 0
1:55 pm 13:55 Cloudy 50 10 45 7.4 84 84 N 20 31 29.88 1012 10 16.0934 0 0
2:15 pm 14:15 Cloudy 50 10.1 46 7.6 85 85 NNE 16 26 29.88 1012 10 16.0934 0 0
2:35 pm 14:35 Cloudy 51 10.7 46 7.7 82 82 ENE 15 24 29.85 1011 10 16.0934 0 0
2:55 pm 14:55 Sunny 55 12.8 48 9.1 78 78 NE 9 15 29.83 1010 10 16.0934 0 0
3:15 pm 15:15 Sunny 57 14.1 49 9.5 74 74 NW 12 19 29.85 1011 10 16.0934 0 0
3:35 pm 15:35 Sunny 60 15.3 49 9.7 69 69 N 8 13 29.83 1010 10 16.0934 0 0
3:55 pm 15:55 Sunny 61 16 50 10 68 68 NNW 8 13 29.83 1010 10 16.0934 0 0
4:15 pm 16:15 Sunny 62 16.8 50 10.1 65 65 NW 8 13 29.83 1010 10 16.0934 0 0
4:35 pm 16:35 Sunny 64 17.9 50 9.9 60 60 NW 10 17 29.83 1010 10 16.0934 0 0
4:55 pm 16:55 Sunny 66 18.7 49 9.7 56 56 N 13 20 29.8 1009 10 16.0934 0 0
5:35 pm 17:35 Sunny 67 19.5 48 9.1 51 51 NNW 10 17 29.8 1009 10 16.0934 0 0
5:55 pm 17:55 Sunny 67 19.7 48 9.1 51 51 N 12 19 29.8 1009 10 16.0934 0 0
6:15 pm 18:15 Sunny 67 19.4 48 8.7 50 50 NNW 14 22 29.8 1009 10 16.0934 0 0
6:35 pm 18:35 Sunny 68 20.2 49 9.2 49 49 N 12 19 29.8 1009 10 16.0934 0 0
6:55 pm 18:55 Sunny 67 19.5 48 9.1 51 51 N 10 17 29.8 1009 10 16.0934 0 0
7:15 pm 19:15 Sunny 65 18.6 48 9.1 54 54 N 9 15 29.83 1010 10 16.0934 0 0
7:35 pm 19:35 Sunny 63 17.2 48 9.1 59 59 NNE 6 9 29.85 1011 10 16.0934 0 0
7:55 pm 19:55 Sunny 62 16.8 49 9.4 62 62 NE 3 6 29.85 1011 10 16.0934 0 0
8:15 pm 20:15 Sunny 60 15.8 48 9 64 64 NNE 3 6 29.85 1011 10 16.0934 0 0
8:35 pm 20:35 Clear 59 14.8 47 8.6 67 67 NNW 10 17 29.91 1013 10 16.0934 0 0
8:55 pm 20:55 Clear 60 15.4 47 8.3 63 63 N 6 9 29.91 1013 10 16.0934 0 0
9:15 pm 21:15 Clear 62 16.5 41 5 47 47 NW 15 24 29.91 1013 10 16.0934 0 0
9:35 pm 21:35 Clear 61 15.9 41 4.9 48 48 NW 12 19 29.94 1014 10 16.0934 0 0
9:55 pm 21:55 Clear 61 16.1 39 4.1 45 45 NW 15 24 29.94 1014 10 16.0934 0 0
10:15 pm 22:15 Clear 60 15.4 39 4.1 47 47 WNW 12 19 29.94 1014 10 16.0934 0 0
10:35 pm 22:35 Clear 57 14.1 40 4.2 52 52 NW 12 19 29.97 1015 10 16.0934 0 0
10:55 pm 22:55 Clear 56 13.5 40 4.4 54 54 NW 13 20 29.97 1015 10 16.0934 0 0
11:15 pm 23:15 Clear 54 12.4 40 4.7 60 60 NW 14 22 30 1016 10 16.0934 0 0
11:35 pm 23:35 Clear 54 12.3 41 5 61 61 NNW 14 22 30 1016 10 16.0934 0 0
11:55 pm 23:55 Clear 55 12.8 43 6 64 64 NNW 16 26 30.03 1017 10 16.0934 0 0

Powered by AerisWeather